RUK291 EGSS-EIDW

Flight info

Callsign RUK291
Flight time 0h 57m
Altitude 24000
Route NUGBO M183 SILVA/N0427F340 P86 DIDZA N14 OKSAW DCT BIBPE DCT OKTAD DCT MEDOG DCT KRAGY DCT PEMOB M17 VATRY VATRY4L
Aircraft B738/M-SDE3FGILRWY/SB1

Departure

Time 2026-04-30 18:34
Airport London Stansted Airport (EGSS)

Arrival

Time 2026-04-30 19:31
Airport Dublin Airport (EIDW)
Time Latitude Longitude Altitude Speed Heading
2026-04-30 18:07 51.89028 0.25700 352 ft 0 kts 43°
2026-04-30 18:21 51.89027 0.25698 358 ft 2 kts 43°
2026-04-30 18:21 51.89015 0.25680 358 ft 2 kts 41°
2026-04-30 18:21 51.89002 0.25662 353 ft 2 kts 27°
2026-04-30 18:22 51.88987 0.25663 358 ft 2 kts 324°
2026-04-30 18:22 51.88973 0.25684 355 ft 0 kts 312°
2026-04-30 18:24 51.88998 0.25640 350 ft 9 kts 313°
2026-04-30 18:24 51.89045 0.25558 358 ft 11 kts 313°
2026-04-30 18:24 51.89096 0.25471 351 ft 10 kts 313°
2026-04-30 18:25 51.89145 0.25385 349 ft 10 kts 313°
2026-04-30 18:25 51.89115 0.25186 348 ft 17 kts 223°
2026-04-30 18:25 51.89008 0.25025 348 ft 25 kts 223°
2026-04-30 18:26 51.88744 0.24630 348 ft 24 kts 223°
2026-04-30 18:26 51.88624 0.24449 348 ft 23 kts 223°
2026-04-30 18:26 51.88503 0.24267 348 ft 26 kts 223°
2026-04-30 18:27 51.88217 0.23838 351 ft 27 kts 223°
2026-04-30 18:27 51.88083 0.23638 352 ft 25 kts 223°
2026-04-30 18:28 51.87842 0.23275 349 ft 22 kts 223°
2026-04-30 18:28 51.87747 0.23133 352 ft 14 kts 223°
2026-04-30 18:28 51.87811 0.22895 350 ft 13 kts 313°
2026-04-30 18:29 51.87862 0.22807 346 ft 4 kts 313°
2026-04-30 18:29 51.87869 0.22794 348 ft 0 kts 313°
2026-04-30 18:31 51.87893 0.22752 351 ft 9 kts 312°
2026-04-30 18:32 51.87950 0.22669 345 ft 4 kts
2026-04-30 18:32 51.87976 0.22693 337 ft 5 kts 43°
2026-04-30 18:32 51.87985 0.22707 339 ft 0 kts 43°
2026-04-30 18:33 51.87986 0.22709 339 ft 2 kts 43°
2026-04-30 18:33 51.88484 0.23456 340 ft 117 kts 43°
2026-04-30 18:33 51.89216 0.24577 486 ft 162 kts 47°
2026-04-30 18:34 51.90042 0.25785 1373 ft 159 kts 48°
2026-04-30 18:34 51.91859 0.28463 2343 ft 202 kts 51°
2026-04-30 18:34 51.93139 0.29785 2525 ft 241 kts 21°
2026-04-30 18:35 51.94919 0.29801 2762 ft 275 kts 343°
2026-04-30 18:35 51.96520 0.28113 3364 ft 286 kts 305°
2026-04-30 18:35 51.97255 0.25163 4204 ft 282 kts 276°
2026-04-30 18:36 51.97681 0.18891 5994 ft 283 kts 272°
2026-04-30 18:36 51.97919 0.15700 6828 ft 285 kts 274°
2026-04-30 18:36 51.98562 0.09268 8341 ft 295 kts 276°
2026-04-30 18:37 51.98882 0.05964 9103 ft 297 kts 268°
2026-04-30 18:37 51.98570 0.02676 9782 ft 297 kts 251°
2026-04-30 18:37 51.98083 -0.00586 10600 ft 298 kts 253°
2026-04-30 18:37 51.97635 -0.03956 10966 ft 317 kts 254°
2026-04-30 18:38 51.97174 -0.07584 11217 ft 337 kts 255°
2026-04-30 18:38 51.96695 -0.11358 11813 ft 345 kts 255°
2026-04-30 18:38 51.96203 -0.15178 12560 ft 348 kts 255°
2026-04-30 18:38 51.95703 -0.19035 13312 ft 351 kts 255°
2026-04-30 18:39 51.95196 -0.22915 14050 ft 356 kts 255°
2026-04-30 18:39 51.94679 -0.26864 14759 ft 359 kts 255°
2026-04-30 18:39 51.94157 -0.30839 15501 ft 362 kts 255°
2026-04-30 18:39 51.93628 -0.34851 16239 ft 365 kts 255°
2026-04-30 18:40 51.93093 -0.38894 16950 ft 369 kts 255°
2026-04-30 18:40 51.92551 -0.42985 17646 ft 373 kts 255°
2026-04-30 18:40 51.92001 -0.47119 18353 ft 377 kts 255°
2026-04-30 18:40 51.91444 -0.51296 18972 ft 381 kts 255°
2026-04-30 18:41 51.90881 -0.55507 19590 ft 384 kts 254°
2026-04-30 18:41 51.90311 -0.59754 20212 ft 387 kts 254°
2026-04-30 18:41 51.89736 -0.64031 20821 ft 391 kts 254°
2026-04-30 18:41 51.89154 -0.68345 21416 ft 394 kts 253°
2026-04-30 18:42 51.88566 -0.72690 22008 ft 397 kts 253°
2026-04-30 18:42 51.87370 -0.81496 23167 ft 404 kts 253°
2026-04-30 18:42 51.86763 -0.85946 23732 ft 407 kts 253°
2026-04-30 18:45 51.71240 -1.22575 28225 ft 413 kts 221°
2026-04-30 18:45 51.69183 -1.25919 28641 ft 416 kts 221°
2026-04-30 18:45 51.67169 -1.29189 29026 ft 418 kts 221°
2026-04-30 18:46 51.65152 -1.32589 29406 ft 424 kts 228°
2026-04-30 18:46 51.63695 -1.36756 29872 ft 434 kts 246°
2026-04-30 18:46 51.63079 -1.41527 30429 ft 440 kts 263°
2026-04-30 18:46 51.63316 -1.46437 30932 ft 445 kts 280°
2026-04-30 18:47 51.64438 -1.51106 31337 ft 450 kts 295°
2026-04-30 18:47 51.65969 -1.55502 31770 ft 450 kts 297°
2026-04-30 18:47 51.67517 -1.59882 32189 ft 449 kts 296°
2026-04-30 18:47 51.69033 -1.64345 32628 ft 447 kts 294°
2026-04-30 18:48 51.70195 -1.68879 33046 ft 441 kts 284°
2026-04-30 18:48 51.70902 -1.73648 33493 ft 434 kts 274°
2026-04-30 18:48 51.71226 -1.78465 33949 ft 431 kts 272°
2026-04-30 18:48 51.71522 -1.83282 34161 ft 434 kts 272°
2026-04-30 18:49 51.71961 -1.88136 34157 ft 440 kts 278°
2026-04-30 18:49 51.73374 -1.97714 34136 ft 435 kts 281°
2026-04-30 18:50 51.74854 -2.07108 34161 ft 431 kts 281°
2026-04-30 18:50 51.76272 -2.16524 34161 ft 432 kts 281°
2026-04-30 18:51 51.77657 -2.25981 34164 ft 433 kts 280°
2026-04-30 18:51 51.79033 -2.35461 34152 ft 434 kts 280°
2026-04-30 18:52 51.80403 -2.44946 34148 ft 433 kts 280°
2026-04-30 18:52 51.81764 -2.54421 34144 ft 433 kts 280°
2026-04-30 18:53 51.83075 -2.63913 34200 ft 432 kts 279°
2026-04-30 18:53 51.84347 -2.73382 34236 ft 430 kts 279°
2026-04-30 18:54 51.85612 -2.82831 34241 ft 429 kts 279°
2026-04-30 18:54 51.86657 -2.90659 34243 ft 428 kts 278°
2026-04-30 18:55 51.87905 -3.00053 34231 ft 427 kts 278°
2026-04-30 18:55 51.89959 -3.15639 34192 ft 425 kts 278°
2026-04-30 18:56 51.91585 -3.28109 34161 ft 425 kts 278°
2026-04-30 18:57 51.93404 -3.42183 34118 ft 426 kts 278°
2026-04-30 18:57 51.94609 -3.51578 34116 ft 426 kts 278°
2026-04-30 18:58 51.96404 -3.65715 34110 ft 427 kts 277°
2026-04-30 18:59 51.98184 -3.79879 34105 ft 428 kts 277°
2026-04-30 19:00 52.00536 -3.98811 34092 ft 429 kts 277°
2026-04-30 19:01 52.02861 -4.17798 34082 ft 426 kts 277°
2026-04-30 19:02 52.04539 -4.31632 34077 ft 413 kts 277°
2026-04-30 19:02 52.05631 -4.40759 33682 ft 414 kts 276°
2026-04-30 19:03 52.06713 -4.49826 32974 ft 404 kts 276°
2026-04-30 19:03 52.07768 -4.58747 32213 ft 399 kts 276°
2026-04-30 19:04 52.08802 -4.67547 31486 ft 394 kts 276°
2026-04-30 19:04 52.09817 -4.76252 30772 ft 389 kts 275°
2026-04-30 19:05 52.10816 -4.84867 30044 ft 386 kts 275°
2026-04-30 19:05 52.11797 -4.93384 29243 ft 380 kts 275°
2026-04-30 19:06 52.12763 -5.01836 28341 ft 379 kts 275°
2026-04-30 19:06 52.13241 -5.06035 27954 ft 376 kts 275°
2026-04-30 19:06 52.14594 -5.14220 27164 ft 383 kts 297°
2026-04-30 19:07 52.18616 -5.19846 26485 ft 388 kts 331°
2026-04-30 19:07 52.21031 -5.21803 26112 ft 387 kts 332°
2026-04-30 19:08 52.25872 -5.25614 25385 ft 385 kts 332°
2026-04-30 19:08 52.30629 -5.29457 24674 ft 383 kts 332°
2026-04-30 19:08 52.33008 -5.31410 24306 ft 382 kts 332°
2026-04-30 19:09 52.37753 -5.35323 23571 ft 382 kts 332°
2026-04-30 19:09 52.40119 -5.37277 23169 ft 380 kts 332°
2026-04-30 19:09 52.42476 -5.39226 22791 ft 379 kts 332°
2026-04-30 19:10 52.47155 -5.43105 22056 ft 375 kts 332°
2026-04-30 19:10 52.51792 -5.46956 21344 ft 372 kts 332°
2026-04-30 19:11 52.54093 -5.48871 20994 ft 370 kts 332°
2026-04-30 19:11 52.58847 -5.52015 20296 ft 368 kts 343°
2026-04-30 19:11 52.61304 -5.53176 19952 ft 367 kts 344°
2026-04-30 19:12 52.63755 -5.54326 19604 ft 366 kts 343°
2026-04-30 19:12 52.66192 -5.55521 19253 ft 365 kts 343°
2026-04-30 19:12 52.68617 -5.56752 18895 ft 365 kts 342°
2026-04-30 19:13 52.73458 -5.59251 18155 ft 364 kts 342°
2026-04-30 19:13 52.78273 -5.61739 17425 ft 361 kts 342°
2026-04-30 19:13 52.80663 -5.62976 17069 ft 359 kts 342°
2026-04-30 19:14 52.83040 -5.64207 16722 ft 357 kts 342°
2026-04-30 19:14 52.85406 -5.65433 16375 ft 355 kts 342°
2026-04-30 19:14 52.87761 -5.66655 16036 ft 354 kts 342°
2026-04-30 19:14 52.90102 -5.67871 15697 ft 352 kts 342°
2026-04-30 19:15 52.92404 -5.69069 15363 ft 351 kts 342°
2026-04-30 19:15 52.97046 -5.71488 14666 ft 349 kts 342°
2026-04-30 19:15 52.99357 -5.72694 14333 ft 348 kts 342°
2026-04-30 19:16 53.01667 -5.73902 13979 ft 348 kts 342°
2026-04-30 19:16 53.03958 -5.75100 13612 ft 341 kts 342°
2026-04-30 19:16 53.08377 -5.77415 12933 ft 327 kts 342°
2026-04-30 19:17 53.10544 -5.78552 12629 ft 326 kts 342°
2026-04-30 19:17 53.14167 -5.82612 11996 ft 313 kts 299°
2026-04-30 19:17 53.15146 -5.85782 11722 ft 305 kts 289°
2026-04-30 19:18 53.16539 -5.91210 11209 ft 303 kts 288°
2026-04-30 19:18 53.17620 -5.95486 10807 ft 302 kts 288°
2026-04-30 19:18 53.18439 -5.98696 10509 ft 301 kts 288°
2026-04-30 19:19 53.19262 -6.01901 10201 ft 300 kts 288°
2026-04-30 19:19 53.20085 -6.05093 9887 ft 299 kts 288°
2026-04-30 19:19 53.21729 -6.11453 9237 ft 297 kts 289°
2026-04-30 19:20 53.22545 -6.14614 8921 ft 296 kts 289°
2026-04-30 19:20 53.23357 -6.17762 8611 ft 294 kts 289°
2026-04-30 19:20 53.24962 -6.24000 8037 ft 291 kts 289°
2026-04-30 19:21 53.25760 -6.27108 7738 ft 291 kts 289°
2026-04-30 19:21 53.27337 -6.33262 7320 ft 283 kts 289°
2026-04-30 19:22 53.28845 -6.39160 7067 ft 269 kts 289°
2026-04-30 19:22 53.30989 -6.47582 6536 ft 259 kts 289°
2026-04-30 19:23 53.33100 -6.55903 5933 ft 259 kts 288°
2026-04-30 19:24 53.34498 -6.61425 5528 ft 256 kts 288°
2026-04-30 19:24 53.35180 -6.64125 5333 ft 254 kts 288°
2026-04-30 19:24 53.37275 -6.68750 4916 ft 260 kts 336°
2026-04-30 19:25 53.42620 -6.68717 4324 ft 261 kts 16°
2026-04-30 19:26 53.44837 -6.65071 4054 ft 210 kts 84°
2026-04-30 19:26 53.45244 -6.60550 3830 ft 183 kts 95°
2026-04-30 19:26 53.45295 -6.58479 3791 ft 174 kts 97°
2026-04-30 19:27 53.45193 -6.54396 3355 ft 174 kts 102°
2026-04-30 19:27 53.44984 -6.50418 2874 ft 171 kts 102°
2026-04-30 19:28 53.44877 -6.48442 2662 ft 170 kts 102°
2026-04-30 19:28 53.44640 -6.44480 2193 ft 171 kts 103°
2026-04-30 19:29 53.44422 -6.40543 1731 ft 162 kts 101°
2026-04-30 19:29 53.44323 -6.38743 1569 ft 145 kts 102°
2026-04-30 19:30 53.44026 -6.33800 952 ft 145 kts 97°
2026-04-30 19:30 53.43837 -6.30418 572 ft 145 kts 94°
2026-04-30 19:31 53.43666 -6.27123 209 ft 124 kts 95°
2026-04-30 19:31 53.43605 -6.26059 212 ft 60 kts 95°
2026-04-30 19:31 53.43521 -6.25207 213 ft 27 kts 119°
2026-04-30 19:32 53.43441 -6.24977 210 ft 19 kts 121°
2026-04-30 19:32 53.43400 -6.24858 210 ft 10 kts 121°
2026-04-30 19:32 53.43367 -6.24758 210 ft 10 kts 111°
2026-04-30 19:32 53.43357 -6.24648 215 ft 9 kts 95°
2026-04-30 19:33 53.43351 -6.24538 210 ft 10 kts 96°
2026-04-30 19:33 53.43327 -6.24414 215 ft 12 kts 144°
2026-04-30 19:33 53.43247 -6.24411 212 ft 12 kts 185°
2026-04-30 19:33 53.43189 -6.24480 210 ft 11 kts 262°
2026-04-30 19:34 53.43195 -6.24609 210 ft 10 kts 275°
2026-04-30 19:34 53.43184 -6.24690 215 ft 7 kts 247°
2026-04-30 19:34 53.43189 -6.24847 215 ft 6 kts 275°
2026-04-30 19:35 53.43192 -6.24901 210 ft 4 kts 275°
2026-04-30 19:35 53.43186 -6.24942 218 ft 4 kts 222°
2026-04-30 19:35 53.43159 -6.24952 210 ft 4 kts 185°
2026-04-30 19:35 53.43133 -6.24956 210 ft 3 kts 185°
2026-04-30 19:36 53.43118 -6.24958 214 ft 2 kts 185°
2026-04-30 19:36 53.43111 -6.24959 217 ft 1 kts 185°
2026-04-30 19:36 53.43108 -6.24960 217 ft 0 kts 185°